Georgetown, DE

11:39 PM EST on February 12, 2016 (GMT -0500)
Sussex County

Weather History for KGED - February, 2013

Change the Weather History Date:

Monday, February 4, 2013

  Actual Average Record
Temperature  
Mean Temperature 31 °F 36 °F  
Max Temperature 35 °F 45 °F 65 °F (1982)
Min Temperature 27 °F 27 °F 5 °F (1965)
Degree Days  
Heating Degree Days 34 29  
Month to date heating degree days 145 116  
Since 1 July heating degree days 2363 2626  
Cooling Degree Days 0 0  
Month to date cooling degree days 0 0  
Year to date cooling degree days 0 0  
Moisture  
Dew Point 15 °F    
Average Humidity 54    
Maximum Humidity 69    
Minimum Humidity 38    
Precipitation  
Precipitation T in 0.10 in 1.90 in (1961)
Month to date precipitation 0.07 0.40  
Year to date precipitation 2.87 3.32  
Sea Level Pressure  
Sea Level Pressure 30.02 in    
Wind  
Wind Speed 7 mph (West)    
Max Wind Speed 16 mph    
Max Gust Speed 22 mph    
Visibility 10 miles    
Events Snow    
T = Trace of Precipitation, MM = Missing Value Source: NWS Daily Summary

Daily Weather History Graph

Daily Weather History Graph

Search for Another Location

Airport or City:

Trip Planner

Search our weather history database for the weather conditions in past years. The results will help you decide how hot, cold, wet, or windy it might be!

Date:

Astronomy

Feb. 04, 2013 Rise Set
Actual Time 7:04 AM EST 5:27 PM EST
Civil Twilight 6:36 AM EST 5:54 PM EST
Nautical Twilight 6:04 AM EST 6:26 PM EST
Astronomical Twilight 5:33 AM EST 6:57 PM EST
Moon 1:36 AM EST (2/4) 11:49 AM EST (2/4)
Length of Visible Light 11h 18m
Length of Day
10h 22m
Last Quarter, 37% of the Moon is Illuminated
Feb 4
Last Quarter
Feb 10
New
Feb 17
First Quarter
Feb 25
Full
Mar 4
Last Quarter

Hourly Weather History & Observations

Time (EST) Temp. Windchill Dew Point Humidity Pressure Visibility Wind Dir Wind Speed Gust Speed Precip Events Conditions
12:28 AM 33.8 °F 27.0 °F 24.8 °F 70% 29.92 in 9.0 mi WNW 8.1 mph - 0.00 in Snow Light Snow
12:54 AM 33.1 °F 26.1 °F 23.0 °F 66% 29.92 in 10.0 mi NW 8.1 mph - 0.00 in   Overcast
1:54 AM 32.0 °F 24.8 °F 16.0 °F 52% 29.95 in 10.0 mi WNW 8.1 mph 18.4 mph N/A   Overcast
2:54 AM 30.9 °F 25.2 °F 15.1 °F 52% 29.97 in 10.0 mi NW 5.8 mph 16.1 mph N/A   Mostly Cloudy
3:54 AM 30.0 °F 23.2 °F 15.1 °F 54% 29.99 in 10.0 mi Variable 6.9 mph - N/A   Overcast
5:54 AM 28.0 °F 20.0 °F 10.9 °F 49% 30.03 in 10.0 mi NW 8.1 mph 16.1 mph N/A   Clear
6:54 AM 27.0 °F 20.5 °F 10.0 °F 49% 30.07 in 10.0 mi WNW 5.8 mph - N/A   Clear
7:54 AM 27.0 °F 18.0 °F 9.0 °F 47% 30.10 in 10.0 mi WNW 9.2 mph - N/A   Clear
8:54 AM 28.0 °F 19.3 °F 9.0 °F 45% 30.12 in 10.0 mi WNW 9.2 mph - N/A   Clear
9:54 AM 28.9 °F 21.1 °F 10.0 °F 45% 30.12 in 10.0 mi West 8.1 mph - N/A   Clear
10:54 AM 30.0 °F 22.4 °F 10.0 °F 43% 30.10 in 10.0 mi NW 8.1 mph - N/A   Clear
11:54 AM 32.0 °F 23.6 °F 10.9 °F 42% 30.08 in 10.0 mi WNW 10.4 mph 18.4 mph N/A   Clear
12:54 PM 33.1 °F 25.5 °F 12.0 °F 42% 30.04 in 10.0 mi West 9.2 mph - N/A   Clear
1:54 PM 34.0 °F 25.0 °F 12.9 °F 42% 30.02 in 10.0 mi SW 12.7 mph 18.4 mph N/A   Clear
2:54 PM 34.0 °F 28.0 °F 12.9 °F 42% 30.02 in 10.0 mi WSW 6.9 mph - N/A   Scattered Clouds
3:54 PM 35.1 °F 25.2 °F 12.9 °F 40% 30.02 in 10.0 mi SW 16.1 mph - N/A   Clear
4:54 PM 34.0 °F 27.2 °F 15.1 °F 46% 30.02 in 10.0 mi WSW 8.1 mph 16.1 mph N/A   Clear
5:54 PM 32.0 °F - 15.1 °F 50% 30.02 in 10.0 mi Calm Calm - N/A   Clear
6:54 PM 30.0 °F - 19.0 °F 64% 30.01 in 10.0 mi Calm Calm - N/A   Overcast
7:54 PM 32.0 °F - 19.0 °F 59% 30.01 in 10.0 mi Calm Calm - N/A   Overcast
8:54 PM 32.0 °F 28.7 °F 19.0 °F 59% 30.00 in 10.0 mi SSE 3.5 mph - N/A   Overcast
9:54 PM 34.0 °F 29.8 °F 19.0 °F 54% 29.98 in 10.0 mi South 4.6 mph - N/A   Overcast
10:54 PM 35.1 °F 29.3 °F 23.0 °F 61% 29.97 in 10.0 mi SSW 6.9 mph - N/A   Overcast
11:54 PM 35.1 °F 31.0 °F 24.1 °F 64% 29.94 in 10.0 mi SSW 4.6 mph - N/A   Overcast